GSAT 0208

Last updated on Sun May 29 2016 01:44:43 GMT+0000 (Coordinated Universal Time)

1 41175U 15079B 16149.78967240 .00000049 00000-0 00000+0 0 9996 2 41175 54.9471 202.3720 0004779 269.3113 65.8967 1.70474131 2762

Satellite not in orbit

GSAT 0208